Weather History for KEWN - October, 2012

Change the Weather History Date:

Sunday, October 28, 2012

  Actual Average Record
Temperature  
Mean Temperature 60 °F 60 °F  
Max Temperature 63 °F 72 °F 86 °F (2014)
Min Temperature 56 °F 49 °F 28 °F (1962)
Degree Days  
Heating Degree Days 5 6  
Month to date heating degree days 60 92  
Since 1 July heating degree days 61 99  
Cooling Degree Days 0 1  
Month to date cooling degree days 91 79  
Year to date cooling degree days 2025 1882  
Growing Degree Days 9 (Base 50)    
Moisture  
Dew Point 56 °F    
Average Humidity 85    
Maximum Humidity 93    
Minimum Humidity 77    
Precipitation  
Precipitation 0.78 in 0.09 in 1.28 in (2003)
Month to date precipitation 3.90 2.96  
Year to date precipitation 46.69 45.65  
Snow  
Snow 0.00 in - - ()
Month to date snowfall 0.0  
Since 1 July snowfall 0.0  
Snow Depth 0.00 in    
Sea Level Pressure  
Sea Level Pressure 29.46 in    
Wind  
Wind Speed 19 mph (North)    
Max Wind Speed 32 mph    
Max Gust Speed 44 mph    
Visibility 7 miles    
Events Rain    
T = Trace of Precipitation, MM = Missing Value Source: NWS Daily Summary

Daily Weather History Graph

Daily Weather History Graph

Search for Another Location

Airport or City:

Trip Planner

Search our weather history database for the weather conditions in past years. The results will help you decide how hot, cold, wet, or windy it might be!

Date:

Astronomy

Oct. 28, 2012 Rise Set
Actual Time 7:25 AM EDT 6:17 PM EDT
Civil Twilight 6:59 AM EDT 6:43 PM EDT
Nautical Twilight 6:30 AM EDT 7:13 PM EDT
Astronomical Twilight 6:00 AM EDT 7:42 PM EDT
Moon 5:33 PM EDT (10/28) 6:18 AM EDT (10/28)
Length of Visible Light 11h 43m
Length of Day
10h 51m
Waxing Gibbous, 99% of the Moon is Illuminated
Oct 28
Waxing Gibbous
Oct 29
Full
Nov 6
Last Quarter
Nov 13
New
Nov 20
First Quarter

Hourly Weather History & Observations

Time (EDT) Temp. Dew Point Humidity Pressure Visibility Wind Dir Wind Speed Gust Speed Precip Events Conditions
12:54 AM 63.0 °F 60.1 °F 90% 29.54 in 6.0 mi North 19.6 mph 31.1 mph 0.11 in Rain Rain
1:25 AM 62.6 °F 60.8 °F 94% 29.53 in 9.0 mi North 17.3 mph 28.8 mph 0.03 in Rain Rain
1:37 AM 62.6 °F 60.8 °F 94% 29.53 in 5.0 mi North 21.9 mph 33.4 mph 0.05 in Rain Rain
1:54 AM 63.0 °F 60.1 °F 90% 29.52 in 6.0 mi North 20.7 mph 34.5 mph 0.06 in Rain Rain
2:54 AM 63.0 °F 59.0 °F 87% 29.51 in 4.0 mi North 25.3 mph 39.1 mph 0.04 in Rain Rain
3:54 AM 63.0 °F 60.1 °F 90% 29.49 in 4.0 mi North 23.0 mph 34.5 mph 0.03 in Rain Light Rain
4:11 AM 62.6 °F 60.8 °F 94% 29.49 in 6.0 mi North 21.9 mph 33.4 mph 0.00 in Rain Light Rain
4:37 AM 62.6 °F 60.8 °F 94% 29.48 in 6.0 mi North 23.0 mph 36.8 mph 0.01 in Rain Light Rain
4:54 AM 63.0 °F 60.1 °F 90% 29.48 in 10.0 mi North 23.0 mph 36.8 mph 0.01 in Rain Light Rain
5:07 AM 62.6 °F 59.0 °F 88% 29.48 in 10.0 mi North 23.0 mph 32.2 mph 0.00 in Rain Light Rain
5:14 AM 62.6 °F 59.0 °F 88% 29.48 in 10.0 mi North 20.7 mph 33.4 mph 0.00 in Rain Light Rain
5:54 AM 62.1 °F 59.0 °F 90% 29.48 in 10.0 mi North 24.2 mph 33.4 mph 0.01 in Rain Light Rain
6:54 AM 61.0 °F 55.0 °F 81% 29.48 in 7.0 mi NNE 24.2 mph 38.0 mph 0.02 in Rain Rain
7:54 AM 61.0 °F 57.0 °F 87% 29.47 in 4.0 mi NNE 19.6 mph 34.5 mph 0.20 in Rain Heavy Rain
8:26 AM 60.8 °F 57.2 °F 88% 29.48 in 2.5 mi North 17.3 mph 29.9 mph 0.13 in Rain Heavy Rain
8:35 AM 60.8 °F 57.2 °F 88% 29.48 in 3.0 mi North 13.8 mph 26.5 mph 0.16 in Rain Rain
8:46 AM 60.8 °F 57.2 °F 88% 29.48 in 3.0 mi North 13.8 mph 25.3 mph 0.18 in Rain Heavy Rain
8:54 AM 61.0 °F 57.9 °F 90% 29.49 in 5.0 mi NNE 13.8 mph 25.3 mph 0.20 in Rain Rain
9:54 AM 61.0 °F 57.9 °F 90% 29.48 in 7.0 mi North 18.4 mph 28.8 mph 0.08 in Rain Light Rain
10:19 AM 60.8 °F 57.2 °F 88% 29.48 in 7.0 mi North 18.4 mph 29.9 mph 0.01 in Rain Light Rain
11:35 AM 62.6 °F 59.0 °F 88% 29.44 in 8.0 mi NNE 21.9 mph 32.2 mph 0.02 in Rain Light Rain
11:54 AM 62.1 °F 59.0 °F 90% 29.43 in 10.0 mi NNE 20.7 mph 31.1 mph 0.02 in Rain Light Rain
1:54 PM 62.1 °F 59.0 °F 90% 29.41 in 10.0 mi North 16.1 mph 25.3 mph 0.02 in Rain Light Rain
2:14 PM 57.2 °F 57.2 °F 100% 29.42 in 10.0 mi NW 18.4 mph 25.3 mph 0.01 in Rain Light Rain
2:54 PM 55.9 °F 54.0 °F 93% 29.42 in 10.0 mi NNW 19.6 mph 31.1 mph 0.03 in Rain Light Rain
3:28 PM 55.4 °F 53.6 °F 94% 29.42 in 10.0 mi NNW 20.7 mph 28.8 mph 0.01 in Rain Rain
3:54 PM 57.0 °F 54.0 °F 89% 29.42 in 10.0 mi NNW 17.3 mph 25.3 mph 0.02 in Rain Light Rain
4:44 PM 55.4 °F 53.6 °F 94% 29.43 in 2.0 mi NW 17.3 mph 34.5 mph 0.00 in Rain Light Rain
4:54 PM 55.9 °F 54.0 °F 93% 29.43 in 2.0 mi NNW 20.7 mph 32.2 mph 0.00 in Rain Light Rain
5:24 PM 55.4 °F 53.6 °F 94% 29.43 in 4.0 mi NNW 15.0 mph 27.6 mph 0.00 in Rain Light Rain
5:31 PM 55.4 °F 53.6 °F 94% 29.43 in 4.0 mi NNW 15.0 mph 24.2 mph 0.00 in Rain Light Rain
5:42 PM 55.4 °F 53.6 °F 94% 29.44 in 4.0 mi NNW 16.1 mph 29.9 mph 0.00 in Rain Light Rain
5:52 PM 57.2 °F 53.6 °F 88% 29.44 in 4.0 mi NW 18.4 mph 27.6 mph 0.00 in Rain Light Rain
5:54 PM 57.0 °F 54.0 °F 89% 29.44 in 4.0 mi NNW 17.3 mph 27.6 mph 0.00 in Rain Light Rain
6:54 PM 57.9 °F 53.1 °F 84% 29.44 in 10.0 mi NNW 18.4 mph 29.9 mph 0.00 in   Overcast
7:54 PM 57.9 °F 52.0 °F 81% 29.45 in 10.0 mi NW 20.7 mph 28.8 mph N/A   Overcast
8:54 PM 57.9 °F 51.1 °F 78% 29.45 in 10.0 mi NW 17.3 mph 29.9 mph N/A   Overcast
9:54 PM 57.9 °F 51.1 °F 78% 29.45 in 10.0 mi NW 17.3 mph 26.5 mph N/A   Overcast
10:54 PM 57.9 °F 50.0 °F 75% 29.45 in 10.0 mi NW 16.1 mph 28.8 mph N/A   Overcast
11:54 PM 57.0 °F 50.0 °F 77% 29.44 in 10.0 mi NW 18.4 mph 31.1 mph N/A   Overcast